WetterOnline ( https://www.wetteronline.de )

Wetter aktuell Freiburg im Breisgau

Aktuelles Wetter: Freiburg/Flugplatz (236m)

6-stündlich | Neueste Meldungen
Ortszeit Temperatur Wetter
Mi, 19.06. 2:00 20.5° C leichter Regen
Di, 18.06. 20:00 27.2° C bedeckt
Di, 18.06. 14:00 27.3° C wolkig
Di, 18.06. 8:00 16.7° C leicht bewölkt
Di, 18.06. 2:00 14.1° C wolkig
Mo, 17.06. 20:00 19.5° C bedeckt
Mo, 17.06. 14:00 20.0° C leichter Regen
Mo, 17.06. 8:00 19.5° C bewölkt
Ortszeit Temperatur Wetter
Mi, 19.06. 2:00 20.5° C leichter Regen
Mi, 19.06. 1:50 20.5° C leichter Regen
Mi, 19.06. 1:40 21.4° C bedeckt
Mi, 19.06. 1:30 20.7° C bewölkt
Mi, 19.06. 1:20 20.7° C bewölkt
Mi, 19.06. 1:10 20.4° C bedeckt
Mi, 19.06. 1:00 20.6° C bedeckt
Mi, 19.06. 0:30 20.6° C bedeckt
Mi, 19.06. 0:00 21.8° C bedeckt
Di, 18.06. 23:30 23.0° C bedeckt
Di, 18.06. 23:00 22.6° C bewölkt
Ortszeit Relative Feuchte Sichtweite
Mi, 19.06. 2:00 77% 35 km
Di, 18.06. 20:00 49% 55 km
Di, 18.06. 14:00 54% 35 km
Di, 18.06. 8:00 78% 35 km
Di, 18.06. 2:00 97% 40 km
Mo, 17.06. 20:00 76% >70 km
Mo, 17.06. 14:00 73% 16 km
Mo, 17.06. 8:00 68% 60 km
Ortszeit Relative Feuchte Sichtweite
Mi, 19.06. 2:00 77% 35 km
Mi, 19.06. 1:50 77% -
Mi, 19.06. 1:40 70% -
Mi, 19.06. 1:30 75% 50 km
Mi, 19.06. 1:20 75% -
Mi, 19.06. 1:10 76% -
Mi, 19.06. 1:00 75% 19 km
Mi, 19.06. 0:30 75% 45 km
Mi, 19.06. 0:00 68% 40 km
Di, 18.06. 23:30 64% 60 km
Di, 18.06. 23:00 66% 50 km
Ortszeit Niederschlagsmenge Niederschlagsart
Mi, 19.06. 2:00 0.2 l/m2 in 6 Std. Regen
Di, 18.06. 20:00 0.0 l/m2 in 12 Std. -
Di, 18.06. 14:00 0.0 l/m2 in 6 Std. -
Di, 18.06. 8:00 0.0 l/m2 in 12 Std. -
Di, 18.06. 2:00 0.0 l/m2 in 6 Std. -
Mo, 17.06. 20:00 0.9 l/m2 in 12 Std. Regen
Mo, 17.06. 14:00 0.2 l/m2 in 6 Std. Regen
Mo, 17.06. 8:00 0.2 l/m2 in 12 Std. Regen
Ortszeit Niederschlagsmenge Niederschlagsart
Mi, 19.06. 2:00 0.2 l/m2 in 1 Std. Regen
Mi, 19.06. 1:50 keine Meldung -
Mi, 19.06. 1:40 keine Meldung -
Mi, 19.06. 1:30 0.0 l/m2 in 30 Min -
Mi, 19.06. 1:20 keine Meldung -
Mi, 19.06. 1:10 keine Meldung -
Mi, 19.06. 1:00 0.0 l/m2 in 1 Std. -
Mi, 19.06. 0:30 0.0 l/m2 in 30 Min -
Mi, 19.06. 0:00 0.0 l/m2 in 1 Std. -
Di, 18.06. 23:30 0.0 l/m2 in 30 Min -
Di, 18.06. 23:00 0.0 l/m2 in 1 Std. -
Ortszeit Stärke Spitze Richtung
km/h Bft. km/h Grad Sektor
Mi, 19.06. 2:00 4 1 18 350° N
Di, 18.06. 20:00 7 2 25 210° SW
Di, 18.06. 14:00 4 1 11 290° W
Di, 18.06. 8:00 6 1 7 340° N
Di, 18.06. 2:00 4 1 7 290° W
Mo, 17.06. 20:00 7 2 22 310° NW
Mo, 17.06. 14:00 11 2 36 210° SW
Mo, 17.06. 8:00 11 2 25 200° S
Ortszeit Stärke Spitze Richtung
km/h Bft. km/h Grad Sektor
Mi, 19.06. 2:00 4 1 7 350° N
Mi, 19.06. 1:50 4 1 - 350° N
Mi, 19.06. 1:40 4 1 - 140° SO
Mi, 19.06. 1:30 4 1 4 140° SO
Mi, 19.06. 1:20 4 1 - 140° SO
Mi, 19.06. 1:10 4 1 - 160° S
Mi, 19.06. 1:00 2 1 11 140° SO
Mi, 19.06. 0:30 4 1 11 330° NW
Mi, 19.06. 0:00 6 1 9 160° S
Di, 18.06. 23:30 7 2 11 210° SW
Di, 18.06. 23:00 4 1 14 210° SW
Ortszeit Untergrenze Bedeckung Gattung
total tief tief mittel hoch
Mi, 19.06. 2:00 570 m 8/8 1/8 - - -
Di, 18.06. 20:00 3900 m 8/8 8/8 - - -
Di, 18.06. 14:00 6600 m 8/8 8/8 - - -
Di, 18.06. 8:00 10500 m 7/8 0/8 - - -
Di, 18.06. 2:00 10500 m 7/8 0/8 - - -
Mo, 17.06. 20:00 3000 m 8/8 8/8 - - -
Mo, 17.06. 14:00 2700 m 7/8 7/8 - - -
Mo, 17.06. 8:00 1440 m 8/8 7/8 - - -
Ortszeit Bedeckungsgrad in Achtel und Wolkenuntergrenze
Mi, 19.06. 2:00 1(570m) 8(3900m) 8(4500m)
Mi, 19.06. 1:50 1(570m) 8(3900m) 8(4500m)
Mi, 19.06. 1:40 8
Mi, 19.06. 1:30 5(2700m) 8(4500m) 8(7500m)
Mi, 19.06. 1:20 5(2700m) 8(4500m) 8(7500m)
Mi, 19.06. 1:10 8
Mi, 19.06. 1:00 7(3300m) 8(6900m) 8(7800m)
Mi, 19.06. 0:30 6(3300m) 8(6600m) 8(7800m)
Mi, 19.06. 0:00 8(6600m) 8(10500m)
Di, 18.06. 23:30 2(3600m) 8(6300m) 8(9000m)
Di, 18.06. 23:00 5(3300m) 7(6600m) 7(7800m)
Ortszeit Luftdruck NN (hPa) Tendenz (hPa in 3 Std.)
Mi, 19.06. 2:00 1013 + 1,8
Di, 18.06. 20:00 1011 - 0,3
Di, 18.06. 14:00 1012 - 0,3
Di, 18.06. 8:00 1015 - 0,4
Di, 18.06. 2:00 1016 0,0
Mo, 17.06. 20:00 1015 - 0,2
Mo, 17.06. 14:00 1016 + 1,4
Mo, 17.06. 8:00 1014 + 0,9
Ortszeit Luftdruck NN (hPa) Tendenz (hPa in 3 Std.)
Mi, 19.06. 2:00 1013 + 1,8
Mi, 19.06. 1:50 1013 keine Meldung
Mi, 19.06. 1:40 1013 keine Meldung
Mi, 19.06. 1:30 1013 + 1,5
Mi, 19.06. 1:20 1013 keine Meldung
Mi, 19.06. 1:10 1013 keine Meldung
Mi, 19.06. 1:00 1013 + 1,6
Mi, 19.06. 0:30 1012 + 1,1
Mi, 19.06. 0:00 1012 + 0,6
Di, 18.06. 23:30 1011 + 0,2
Di, 18.06. 23:00 1011 - 0,2
Ortszeit Schneehöhe (cm)
Mi, 19.06. 2:00 0
Di, 18.06. 20:00 0
Di, 18.06. 14:00 0
Di, 18.06. 8:00 0
Di, 18.06. 2:00 0
Mo, 17.06. 20:00 0
Mo, 17.06. 14:00 0
Mo, 17.06. 8:00 0
Ortszeit Schneehöhe (cm)
Mi, 19.06. 2:00 0
Mi, 19.06. 1:50 0
Mi, 19.06. 1:40 -
Mi, 19.06. 1:30 0
Mi, 19.06. 1:20 0
Mi, 19.06. 1:10 -
Mi, 19.06. 1:00 0
Mi, 19.06. 0:30 0
Mi, 19.06. 0:00 0
Di, 18.06. 23:30 0
Di, 18.06. 23:00 0
Link zu dieser Seite / Seite empfehlen

Das Wetter in ...